Location: Chillicothe
(39.7950°N, 93.5520°W)
Time: 07:11:14
(UTC-05:00)

Altair - All Passes

Search period start: 21 October 2019 00:00
Search period end: 31 October 2019 00:00
Orbit: 1501 x 1682 km, 47.2° (Epoch: 20 October)

Date Brightness Start Highest point End Pass type
(mag) Time Alt. Az. Time Alt. Az. Time Alt. Az.
21 Oct - 08:52:37 10° SE 08:55:42 12° ESE 08:58:48 10° E daylight
21 Oct - 10:49:41 10° SSW 10:58:38 52° SE 11:07:56 10° ENE daylight
21 Oct - 12:53:42 10° WSW 13:03:14 72° NNW 13:13:11 10° ENE daylight
21 Oct - 14:59:38 10° WNW 15:09:12 56° N 15:19:06 10° E daylight
21 Oct - 17:05:01 10° WNW 17:15:00 83° NNE 17:25:13 10° ESE daylight
21 Oct - 19:10:15 10° WNW 19:19:23 41° SW 19:28:36 10° SSE visible
22 Oct - 10:24:45 10° SSW 10:33:32 48° SE 10:42:39 10° ENE daylight
22 Oct - 12:28:29 10° WSW 12:38:00 75° NNW 12:47:56 10° ENE daylight
22 Oct - 14:34:22 10° WNW 14:43:54 56° N 14:53:46 10° E daylight
22 Oct - 16:39:48 10° WNW 16:49:46 79° NNE 16:59:58 10° ESE daylight
22 Oct - 18:44:58 10° WNW 18:54:16 45° SW 19:03:39 10° SSE visible
23 Oct - 09:59:50 10° SSW 10:08:27 44° SE 10:17:22 10° ENE daylight
23 Oct - 12:03:17 10° WSW 12:12:47 78° NNW 12:22:41 10° ENE daylight
23 Oct - 14:09:07 10° WNW 14:18:36 56° N 14:28:26 10° ENE daylight
23 Oct - 16:14:36 10° WNW 16:24:31 76° NNE 16:34:42 10° ESE daylight
23 Oct - 18:19:43 10° WNW 18:29:08 48° SW 18:38:41 10° SSE daylight
23 Oct - 20:29:46 10° WSW 20:32:11 11° WSW 20:34:36 10° SW visible
24 Oct - 09:34:56 10° SSW 09:43:22 40° SE 09:52:03 10° ENE daylight
24 Oct - 11:38:06 10° WSW 11:47:33 81° NNW 11:57:27 10° ENE daylight
24 Oct - 13:43:52 10° W 13:53:18 56° N 14:03:06 10° ENE daylight
24 Oct - 15:49:25 10° WNW 15:59:16 73° NNE 16:09:25 10° ESE daylight
24 Oct - 17:54:28 10° WNW 18:03:59 52° SW 18:13:40 10° SSE daylight
24 Oct - 20:03:11 10° W 20:07:09 13° WSW 20:11:08 10° SW visible
25 Oct - 09:10:05 10° SSW 09:18:18 37° SE 09:26:44 10° ENE daylight
25 Oct - 11:12:56 10° WSW 11:22:21 85° NNW 11:32:12 10° ENE daylight
25 Oct - 13:18:37 10° W 13:28:01 56° N 13:37:48 10° ENE daylight
25 Oct - 15:24:13 10° WNW 15:34:01 70° NNE 15:44:07 10° ESE daylight
25 Oct - 17:29:14 10° WNW 17:38:50 56° SW 17:48:38 10° SSE daylight
25 Oct - 19:37:08 10° W 19:42:06 15° WSW 19:47:08 10° SSW visible
26 Oct - 08:45:18 10° S 08:53:14 33° SE 09:01:24 10° ENE daylight
26 Oct - 10:47:47 10° WSW 10:57:10 89° NNW 11:06:58 10° ENE daylight
26 Oct - 12:53:21 10° W 13:02:44 57° N 13:12:29 10° ENE daylight
26 Oct - 14:59:00 10° WNW 15:08:45 68° NNE 15:18:48 10° ESE daylight
26 Oct - 17:04:00 10° WNW 17:13:41 60° SW 17:23:34 10° SE daylight
26 Oct - 19:11:18 10° W 19:17:03 17° WSW 19:22:52 10° SSW visible
27 Oct - 08:20:31 10° S 08:28:11 30° SE 08:36:01 10° ENE daylight
27 Oct - 10:22:39 10° SW 10:31:59 87° SSE 10:41:44 10° ENE daylight
27 Oct - 12:28:06 10° W 12:37:27 57° N 12:47:11 10° ENE daylight
27 Oct - 14:33:48 10° WNW 14:43:29 66° NNE 14:53:29 10° E daylight
27 Oct - 16:38:47 10° WNW 16:48:31 64° SW 16:58:28 10° SE daylight
27 Oct - 18:45:38 10° W 18:52:00 19° SW 18:58:28 10° SSW visible
28 Oct - 07:55:48 10° S 08:03:08 27° SE 08:10:38 10° ENE daylight
28 Oct - 09:57:31 10° SW 10:06:49 82° SSE 10:16:30 10° ENE daylight
28 Oct - 12:02:51 10° W 12:12:10 58° N 12:21:53 10° ENE daylight
28 Oct - 14:08:37 10° WNW 14:18:13 63° NNE 14:28:11 10° E daylight
28 Oct - 16:13:36 10° WNW 16:23:21 69° SW 16:33:22 10° SE daylight
28 Oct - 18:20:03 10° W 18:26:56 21° SW 18:33:56 10° S daylight
29 Oct - 07:31:08 10° S 07:38:06 25° SE 07:45:12 10° ENE daylight
29 Oct - 09:32:25 10° SW 09:41:40 78° SE 09:51:17 10° ENE daylight
29 Oct - 11:37:36 10° W 11:46:53 60° NNW 11:56:35 10° ENE daylight
29 Oct - 13:43:24 10° WNW 13:52:57 62° NNE 14:02:51 10° E daylight
29 Oct - 15:48:24 10° WNW 15:58:11 73° SW 16:08:14 10° SE daylight
29 Oct - 17:54:33 10° W 18:01:52 24° SW 18:09:20 10° S daylight
30 Oct - 07:06:32 10° S 07:13:05 22° SE 07:19:43 10° E visible
30 Oct - 09:07:20 10° SW 09:16:31 73° SE 09:26:04 10° ENE daylight
30 Oct - 11:12:21 10° W 11:21:38 61° NNW 11:31:18 10° ENE daylight
30 Oct - 13:18:11 10° WNW 13:27:41 60° NNE 13:37:31 10° E daylight
30 Oct - 15:23:13 10° WNW 15:33:00 78° SW 15:43:05 10° SE daylight
30 Oct - 17:29:06 10° WNW 17:36:48 26° SW 17:44:38 10° S daylight
